EDT,Max TemperatureF,Mean TemperatureF,Min TemperatureF,Max Dew PointF,MeanDew PointF,Min DewpointF,Max Humidity, Mean Humidity, Min Humidity, Max Sea Level PressureIn, Mean Sea Level PressureIn, Min Sea Level PressureIn, Max VisibilityMiles, Mean VisibilityMiles, Min VisibilityMiles, Max Wind SpeedMPH, Mean Wind SpeedMPH, Max Gust SpeedMPH,PrecipitationIn, CloudCover, Events, WindDirDegrees
2011-10-1,53,44,34,36,30,26,85,62,39,30.33,30.28,30.19,10,10,10,14,5,18,0.00,0,,328
2011-10-2,62,48,33,46,37,29,96,68,39,30.26,30.19,30.13,10,10,10,14,4,18,0.00,0,,313
2011-10-3,69,57,44,47,43,40,89,63,36,30.25,30.21,30.14,10,10,10,12,3,15,0.00,0,,340
2011-10-4,72,61,50,51,45,38,86,67,47,30.26,30.21,30.16,10,10,10,9,3,12,0.00,0,,194
2011-10-5,64,54,44,46,43,40,93,70,46,30.33,30.27,30.19,10,9,2,15,6,21,0.00,0,,112
2011-10-6,70,59,47,54,48,42,93,74,55,30.33,30.30,30.25,10,10,6,9,5,13,0.00,0,,96
2011-10-7,75,62,49,57,51,46,96,75,53,30.32,30.27,30.20,10,5,1,10,5,14,0.00,0,,92
2011-10-8,78,67,56,55,52,51,86,63,40,30.25,30.22,30.19,10,10,8,20,8,28,0.00,0,,153
2011-10-9,80,66,52,56,53,49,86,63,39,30.29,30.27,30.23,10,9,8,13,4,16,0.00,1,,218
2011-10-10,73,61,48,54,49,45,93,71,49,30.30,30.26,30.13,10,5,0,12,4,15,0.00,0,Fog,83
2011-10-11,73,64,55,55,53,50,93,71,49,30.11,30.05,29.99,10,8,4,12,5,18,0.00,0,,93
2011-10-12,69,62,55,55,53,50,89,76,63,29.98,29.90,29.81,10,8,4,14,6,18,0.00,0,,97
2011-10-13,61,58,54,55,53,51,93,86,78,29.80,29.57,29.41,10,9,5,13,6,18,0.01,8,Rain,106
2011-10-14,57,52,46,55,51,41,93,88,82,29.40,29.21,29.14,10,5,1,23,10,33,1.22,8,Rain,276
2011-10-15,48,46,44,45,41,34,93,79,65,29.53,29.24,29.10,10,6,2,35,23,50,0.58,8,Rain,281
2011-10-16,56,49,42,39,36,31,76,60,43,29.55,29.49,29.42,10,9,2,36,17,49,0.21,7,Rain,269
2011-10-17,46,43,40,40,37,34,89,80,70,29.61,29.48,29.39,10,8,2,26,16,37,0.55,8,Rain,268
2011-10-18,50,45,39,39,36,33,89,75,60,29.92,29.75,29.61,10,9,2,20,9,26,0.23,6,Rain,307
2011-10-19,51,45,38,36,34,32,85,68,50,29.99,29.93,29.82,10,10,10,18,11,29,T,4,,49
2011-10-20,45,43,41,36,35,32,76,69,62,29.75,29.53,29.42,10,10,5,22,14,36,0.46,8,Rain,9
2011-10-21,48,41,34,35,32,30,89,75,60,30.00,29.86,29.67,10,10,8,18,10,25,0.00,4,,314
2011-10-22,56,43,30,43,36,27,96,76,55,30.02,29.99,29.97,10,7,0,7,3,10,0.00,6,Fog,86
2011-10-23,54,46,38,43,40,36,96,79,61,30.00,29.92,29.77,10,5,0,12,3,13,0.05,7,Fog-Rain,131
2011-10-24,47,45,43,45,39,32,92,79,65,30.01,29.76,29.61,10,8,2,26,15,37,0.25,8,Rain,285
2011-10-25,48,43,38,36,33,30,76,66,56,30.09,30.05,29.99,10,10,10,20,5,25,0.00,4,,247
2011-10-26,48,40,31,36,32,29,82,66,49,30.00,29.97,29.95,10,10,8,8,4,13,0.00,6,,45
2011-10-27,44,39,33,36,34,29,92,81,70,30.11,29.98,29.92,10,10,4,8,3,12,0.26,7,Rain,86
2011-10-28,44,38,31,36,33,29,96,85,73,30.17,30.11,30.06,10,6,0,15,4,20,0.08,6,Fog-Rain,118
2011-10-29,48,41,33,38,35,31,96,81,65,30.10,30.04,30.01,10,9,5,9,3,12,0.04,4,Rain,87
2011-10-30,48,39,29,40,33,27,96,75,53,30.15,30.10,30.07,10,4,0,10,5,13,0.01,5,Fog-Rain,122
2011-10-31,52,47,41,43,40,37,89,74,59,30.07,30.02,29.98,10,10,7,13,7,16,0.01,8,Rain,157